Wind From: 20-06-2018 11:00 Until: 22:00 warning for: Wind Level: Yellow info button
suomi:
Tuulivaroitus maa-alueille: Länsituuli on voimakasta keskipäivästä alkaen, tuulen nopeus puuskissa 15 m/s.

svenska:
Vindvarning för landområden: Från och med middagen är den västliga vinden kraftigt, i vindbyarna 15 m/s.

english:
Wind warning for land areas: From noon on, strong winds from west may bring strong gusts of 15 m/s. 


Thunder radar more information blitzortung!


Löydät sääaseman tiedot myös:

European Weather Network

Finland Weather Exchange

Weather Underground

AWEKAS



Weather Underground säähistoriasivu

Päivittäin yhteenveto Tammikuu 13, 2017 Yksiköt:  Molemmat    Englantilaiset   Metriset
« Edellinen Päivä
Seuraava Päivä »
Päivittäin Viikoittain Kuukausittain Vuosittain Mukautettu
  Korkea: Matala: Keskiarvo:
Lämpötila: TemperatureC °F /  -17.8 °C -2.2 °F /  -19 °C -1.4 °F /  -18.6 °C
Kastepiste: DewpointC °F /  -17.8 °C -3.8 °F /  -19.9 °C -2.6 °F /  -19.2 °C
Kosteus: Humidity % 87 % 90 %
Tuulen nopeus: WindSpeedKMH mph /  0 km/h - 0 mph /  0 km/h
Tuulenpuuska: WindSpeedGustKMH mph /  0 km/h - -
Tuuli:- - North
Ilmanpaine: PressurehPa in /  0 hPa 980.6 in /  33203.1 hPa -
Sade: 0.0 in /  0 mm    
Historical Graphs
 
 
Taulukkotiedot Tammikuu 13, 2017
Aika Lämpötila Kastepiste Ilmanpaine Tuuli Tuulen nopeus Tuulenpuuska Kosteus Sademäärä (tunneittain)
TemperatureC °F /  -17.8 °C DewpointC °F /  -17.8 °C PressurehPa in /  0 hPa Calm     Humidity % HourlyPrecipMM in /  0 mm
00:00 -1.8 °F /  -18.8 °C -3.7 °F /  -19.8 °C 980.9 in /  33213.3 hPa Calm     87 % 0.0 in /  0 mm
00:15 -1.9 °F /  -18.8 °C -3.8 °F /  -19.9 °C 980.6 in /  33203.1 hPa Calm     87 % 0.0 in /  0 mm
00:30 -1.9 °F /  -18.8 °C -3.8 °F /  -19.9 °C 980.9 in /  33213.3 hPa Calm     87 % 0.0 in /  0 mm
00:45 -1.9 °F /  -18.8 °C -3.8 °F /  -19.9 °C 980.6 in /  33203.1 hPa Calm     87 % 0.0 in /  0 mm
01:00 -1.9 °F /  -18.8 °C -3.8 °F /  -19.9 °C 980.6 in /  33203.1 hPa Calm     87 % 0.0 in /  0 mm
01:15 -2.0 °F /  -18.9 °C -3.7 °F /  -19.8 °C 980.6 in /  33203.1 hPa Calm     88 % 0.0 in /  0 mm
01:30 -2.0 °F /  -18.9 °C -3.7 °F /  -19.8 °C 980.6 in /  33203.1 hPa Calm     88 % 0.0 in /  0 mm
01:45 -2.0 °F /  -18.9 °C -3.7 °F /  -19.8 °C 980.6 in /  33203.1 hPa Calm     88 % 0.0 in /  0 mm
02:00 -2.0 °F /  -18.9 °C -3.7 °F /  -19.8 °C 980.9 in /  33213.3 hPa Calm     88 % 0.0 in /  0 mm
02:15 -2.0 °F /  -18.9 °C -3.6 °F /  -19.8 °C 980.9 in /  33213.3 hPa Calm     89 % 0.0 in /  0 mm
02:30 -2.1 °F /  -18.9 °C -3.6 °F /  -19.8 °C 980.9 in /  33213.3 hPa Calm     89 % 0.0 in /  0 mm
02:45 -2.1 °F /  -18.9 °C -3.6 °F /  -19.8 °C 980.9 in /  33213.3 hPa Calm     89 % 0.0 in /  0 mm
03:00 -2.1 °F /  -18.9 °C -3.6 °F /  -19.8 °C 980.9 in /  33213.3 hPa Calm     89 % 0.0 in /  0 mm
03:15 -2.1 °F /  -18.9 °C -3.6 °F /  -19.8 °C 980.6 in /  33203.1 hPa Calm     89 % 0.0 in /  0 mm
03:30 -2.1 °F /  -18.9 °C -3.5 °F /  -19.7 °C 980.6 in /  33203.1 hPa Calm     90 % 0.0 in /  0 mm
03:45 -2.2 °F /  -19 °C -3.4 °F /  -19.7 °C 980.6 in /  33203.1 hPa Calm     91 % 0.0 in /  0 mm
04:00 -2.2 °F /  -19 °C -3.5 °F /  -19.7 °C 980.6 in /  33203.1 hPa Calm     91 % 0.0 in /  0 mm
04:15 -2.2 °F /  -19 °C -3.5 °F /  -19.7 °C 980.6 in /  33203.1 hPa Calm     91 % 0.0 in /  0 mm
04:30 -2.2 °F /  -19 °C -3.4 °F /  -19.7 °C 980.6 in /  33203.1 hPa Calm     91 % 0.0 in /  0 mm
04:45 -2.2 °F /  -19 °C -3.5 °F /  -19.7 °C 980.6 in /  33203.1 hPa Calm     91 % 0.0 in /  0 mm
05:00 -2.2 °F /  -19 °C -3.4 °F /  -19.7 °C 980.9 in /  33213.3 hPa Calm     91 % 0.0 in /  0 mm
05:15 -2.2 °F /  -19 °C -3.4 °F /  -19.7 °C 980.6 in /  33203.1 hPa Calm     91 % 0.0 in /  0 mm
05:30 -2.1 °F /  -18.9 °C -3.4 °F /  -19.7 °C 980.6 in /  33203.1 hPa Calm     91 % 0.0 in /  0 mm
05:45 -2.1 °F /  -18.9 °C -3.3 °F /  -19.6 °C 980.6 in /  33203.1 hPa Calm     91 % 0.0 in /  0 mm
06:00 -2.1 °F /  -18.9 °C -3.5 °F /  -19.7 °C 980.6 in /  33203.1 hPa Calm     90 % 0.0 in /  0 mm
06:15 -2.0 °F /  -18.9 °C -3.4 °F /  -19.7 °C 980.9 in /  33213.3 hPa Calm     90 % 0.0 in /  0 mm
06:30 -2.0 °F /  -18.9 °C -3.4 °F /  -19.7 °C 980.9 in /  33213.3 hPa Calm     90 % 0.0 in /  0 mm
06:45 -2.0 °F /  -18.9 °C -3.4 °F /  -19.7 °C 980.9 in /  33213.3 hPa Calm     90 % 0.0 in /  0 mm
07:00 -1.9 °F /  -18.8 °C -3.4 °F /  -19.7 °C 980.9 in /  33213.3 hPa Calm     90 % 0.0 in /  0 mm
07:15 -1.9 °F /  -18.8 °C -3.4 °F /  -19.7 °C 980.6 in /  33203.1 hPa Calm     90 % 0.0 in /  0 mm
07:30 -1.9 °F /  -18.8 °C -3.4 °F /  -19.7 °C 980.6 in /  33203.1 hPa Calm     90 % 0.0 in /  0 mm
07:45 -1.9 °F /  -18.8 °C -3.4 °F /  -19.7 °C 980.6 in /  33203.1 hPa Calm     90 % 0.0 in /  0 mm
08:00 -1.9 °F /  -18.8 °C -3.4 °F /  -19.7 °C 980.6 in /  33203.1 hPa Calm     90 % 0.0 in /  0 mm
08:15 -1.9 °F /  -18.8 °C -3.4 °F /  -19.7 °C 980.9 in /  33213.3 hPa Calm     90 % 0.0 in /  0 mm
08:30 -1.9 °F /  -18.8 °C -3.4 °F /  -19.7 °C 980.9 in /  33213.3 hPa Calm     90 % 0.0 in /  0 mm
08:45 -1.9 °F /  -18.8 °C -3.4 °F /  -19.7 °C 981.3 in /  33226.8 hPa Calm     90 % 0.0 in /  0 mm
09:00 -1.9 °F /  -18.8 °C -3.4 °F /  -19.7 °C 981.3 in /  33226.8 hPa Calm     90 % 0.0 in /  0 mm
09:15 -1.9 °F /  -18.8 °C -3.4 °F /  -19.7 °C 981.3 in /  33226.8 hPa Calm     90 % 0.0 in /  0 mm
09:30 -1.9 °F /  -18.8 °C -3.4 °F /  -19.7 °C 981.3 in /  33226.8 hPa Calm     90 % 0.0 in /  0 mm
09:45 -1.9 °F /  -18.8 °C -3.4 °F /  -19.7 °C 981.6 in /  33237 hPa Calm     90 % 0.0 in /  0 mm
10:00 -1.9 °F /  -18.8 °C -3.4 °F /  -19.7 °C 981.6 in /  33237 hPa Calm     90 % 0.0 in /  0 mm
10:15 -1.9 °F /  -18.8 °C -3.4 °F /  -19.7 °C 981.6 in /  33237 hPa Calm     90 % 0.0 in /  0 mm
10:30 -1.9 °F /  -18.8 °C -3.4 °F /  -19.7 °C 981.6 in /  33237 hPa Calm     90 % 0.0 in /  0 mm
10:45 -1.9 °F /  -18.8 °C -3.3 °F /  -19.6 °C 981.6 in /  33237 hPa Calm     90 % 0.0 in /  0 mm
11:00 -1.8 °F /  -18.8 °C -3.3 °F /  -19.6 °C 981.9 in /  33247.1 hPa Calm     90 % 0.0 in /  0 mm
11:15 -1.8 °F /  -18.8 °C -3.2 °F /  -19.6 °C 981.9 in /  33247.1 hPa Calm     90 % 0.0 in /  0 mm
11:30 -1.7 °F /  -18.7 °C -3.1 °F /  -19.5 °C 981.9 in /  33247.1 hPa Calm     90 % 0.0 in /  0 mm
11:45 -1.7 °F /  -18.7 °C -3.1 °F /  -19.5 °C 981.9 in /  33247.1 hPa Calm     90 % 0.0 in /  0 mm
12:00 -1.6 °F /  -18.7 °C -3.0 °F /  -19.4 °C 981.9 in /  33247.1 hPa Calm     90 % 0.0 in /  0 mm
12:15 -1.4 °F /  -18.6 °C -2.9 °F /  -19.4 °C 981.9 in /  33247.1 hPa Calm     90 % 0.0 in /  0 mm
12:30 -1.5 °F /  -18.6 °C -2.6 °F /  -19.2 °C 981.9 in /  33247.1 hPa Calm     92 % 0.0 in /  0 mm
12:45 -1.5 °F /  -18.6 °C -2.6 °F /  -19.2 °C 982.3 in /  33260.7 hPa Calm     92 % 0.0 in /  0 mm
13:00 -1.5 °F /  -18.6 °C -2.6 °F /  -19.2 °C 982.3 in /  33260.7 hPa Calm     92 % 0.0 in /  0 mm
13:15 -1.4 °F /  -18.6 °C -2.6 °F /  -19.2 °C 982.3 in /  33260.7 hPa Calm     92 % 0.0 in /  0 mm
13:30 -1.4 °F /  -18.6 °C -2.4 °F /  -19.1 °C 982.3 in /  33260.7 hPa Calm     93 % 0.0 in /  0 mm
13:45 -1.3 °F /  -18.5 °C -2.3 °F /  -19.1 °C 982.3 in /  33260.7 hPa Calm     93 % 0.0 in /  0 mm
14:00 -1.3 °F /  -18.5 °C -2.3 °F /  -19.1 °C 982.3 in /  33260.7 hPa Calm     93 % 0.0 in /  0 mm
14:15 -1.2 °F /  -18.4 °C -2.2 °F /  -19 °C 982.3 in /  33260.7 hPa Calm     93 % 0.0 in /  0 mm
14:30 -1.2 °F /  -18.4 °C -2.2 °F /  -19 °C 982.6 in /  33270.8 hPa Calm     93 % 0.0 in /  0 mm
14:45 -1.2 °F /  -18.4 °C -2.2 °F /  -19 °C 982.6 in /  33270.8 hPa Calm     93 % 0.0 in /  0 mm
15:00 -1.1 °F /  -18.4 °C -2.0 °F /  -18.9 °C 982.6 in /  33270.8 hPa Calm     94 % 0.0 in /  0 mm
15:15 -1.1 °F /  -18.4 °C -1.9 °F /  -18.8 °C 982.6 in /  33270.8 hPa Calm     94 % 0.0 in /  0 mm
15:30 -1.0 °F /  -18.3 °C -1.8 °F /  -18.8 °C 983.0 in /  33284.4 hPa Calm     94 % 0.0 in /  0 mm
15:45 -1.0 °F /  -18.3 °C -1.8 °F /  -18.8 °C 983.0 in /  33284.4 hPa Calm     94 % 0.0 in /  0 mm
16:00 -1.0 °F /  -18.3 °C -1.8 °F /  -18.8 °C 983.0 in /  33284.4 hPa Calm     94 % 0.0 in /  0 mm
16:15 -0.9 °F /  -18.3 °C -1.8 °F /  -18.8 °C 983.3 in /  33294.5 hPa Calm     94 % 0.0 in /  0 mm
16:30 -0.8 °F /  -18.2 °C -1.7 °F /  -18.7 °C 983.3 in /  33294.5 hPa Calm     94 % 0.0 in /  0 mm
16:45 -0.8 °F /  -18.2 °C -1.6 °F /  -18.7 °C 983.3 in /  33294.5 hPa Calm     94 % 0.0 in /  0 mm
17:00 -0.7 °F /  -18.2 °C -1.6 °F /  -18.7 °C 983.6 in /  33304.7 hPa Calm     94 % 0.0 in /  0 mm
17:15 -0.6 °F /  -18.1 °C -1.3 °F /  -18.5 °C 984.0 in /  33318.2 hPa Calm     95 % 0.0 in /  0 mm
17:30 -0.5 °F /  -18.1 °C -1.3 °F /  -18.5 °C 984.0 in /  33318.2 hPa Calm     94 % 0.0 in /  0 mm
17:45 -0.4 °F /  -18 °C -1.3 °F /  -18.5 °C 984.0 in /  33318.2 hPa Calm     94 % 0.0 in /  0 mm
18:00 -0.4 °F /  -18 °C -1.2 °F /  -18.4 °C 984.3 in /  33328.4 hPa Calm     94 % 0.0 in /  0 mm
18:15 -0.4 °F /  -18 °C -1.3 °F /  -18.5 °C 984.3 in /  33328.4 hPa Calm     94 % 0.0 in /  0 mm
18:30 -0.4 °F /  -18 °C -1.3 °F /  -18.5 °C 984.3 in /  33328.4 hPa Calm     94 % 0.0 in /  0 mm
18:45 -0.4 °F /  -18 °C -1.3 °F /  -18.5 °C 984.3 in /  33328.4 hPa Calm     94 % 0.0 in /  0 mm
19:00 -0.4 °F /  -18 °C -1.3 °F /  -18.5 °C 984.6 in /  33338.6 hPa Calm     94 % 0.0 in /  0 mm
19:15 -0.4 °F /  -18 °C -1.3 °F /  -18.5 °C 984.6 in /  33338.6 hPa Calm     94 % 0.0 in /  0 mm
19:30 -0.5 °F /  -18.1 °C -1.5 °F /  -18.6 °C 984.6 in /  33338.6 hPa Calm     93 % 0.0 in /  0 mm
19:45 -0.5 °F /  -18.1 °C -1.6 °F /  -18.7 °C 984.6 in /  33338.6 hPa Calm     92 % 0.0 in /  0 mm
20:00 -0.4 °F /  -18 °C -1.7 °F /  -18.7 °C 985.0 in /  33352.1 hPa Calm     91 % 0.0 in /  0 mm
20:15 -0.4 °F /  -18 °C -1.7 °F /  -18.7 °C 985.0 in /  33352.1 hPa Calm     91 % 0.0 in /  0 mm
20:30 -0.6 °F /  -18.1 °C -1.8 °F /  -18.8 °C 985.0 in /  33352.1 hPa Calm     91 % 0.0 in /  0 mm
20:45 -0.6 °F /  -18.1 °C -1.8 °F /  -18.8 °C 985.0 in /  33352.1 hPa Calm     91 % 0.0 in /  0 mm
21:00 -0.6 °F /  -18.1 °C -1.9 °F /  -18.8 °C 985.0 in /  33352.1 hPa Calm     91 % 0.0 in /  0 mm
21:15 -0.7 °F /  -18.2 °C -2.0 °F /  -18.9 °C 985.3 in /  33362.3 hPa Calm     91 % 0.0 in /  0 mm
21:30 -0.7 °F /  -18.2 °C -1.9 °F /  -18.8 °C 985.3 in /  33362.3 hPa Calm     92 % 0.0 in /  0 mm
21:45 -0.8 °F /  -18.2 °C -1.8 °F /  -18.8 °C 985.3 in /  33362.3 hPa Calm     93 % 0.0 in /  0 mm
22:00 -0.8 °F /  -18.2 °C -1.8 °F /  -18.8 °C 985.3 in /  33362.3 hPa Calm     93 % 0.0 in /  0 mm
22:15 -0.8 °F /  -18.2 °C -1.8 °F /  -18.8 °C 985.3 in /  33362.3 hPa Calm     93 % 0.0 in /  0 mm
22:30 -0.8 °F /  -18.2 °C -1.8 °F /  -18.8 °C 985.7 in /  33375.8 hPa Calm     93 % 0.0 in /  0 mm
22:45 -0.8 °F /  -18.2 °C -1.8 °F /  -18.8 °C 986.0 in /  33386 hPa Calm     93 % 0.0 in /  0 mm
23:00 -0.7 °F /  -18.2 °C -1.7 °F /  -18.7 °C 986.0 in /  33386 hPa Calm     93 % 0.0 in /  0 mm
23:15 -0.7 °F /  -18.2 °C -1.7 °F /  -18.7 °C 986.3 in /  33396.1 hPa Calm     93 % 0.0 in /  0 mm
23:30 -0.8 °F /  -18.2 °C -1.6 °F /  -18.7 °C 986.7 in /  33409.7 hPa Calm     94 % 0.0 in /  0 mm
23:45 -0.8 °F /  -18.2 °C -1.6 °F /  -18.7 °C 986.7 in /  33409.7 hPa Calm     94 % 0.0 in /  0 mm
Esan sääasema
Terveisin Weather Underground - 2.75 mb

Alkuperäinen skripti  Jim McMurry - jmcmurry@mwt.net Sovitettu myös templatelle  Wim van der Kuil - Leuven-Template.eu

Laitteet joita käytämme:

Sääasema
Davis VP2

Sääasemaohjelma
Cumulus

Sääaseman tietokone
Asus EeePC

Palveluntarjoaja
Suncomet

Davis VP2

Cumulus

Asus EeePC

Suncomet